Station Historical Data
Daily Summary for March 26, 2017 Units:  Metric    English   Both
« Previous Day
Next Day »
Daily Weekly Monthly Yearly Custom
  High: Low: Average:
Temperature: 16.6 °C 1.3 °C 8.4 °C
Dew Point: 9.9 °C -0.2 °C 4.9 °C
Humidity: 91% 61% 80%
Wind Speed: 19.3km/h 0km/h 8km/h
Wind Gust: 25.7km/h - -
Wind- - ESE
Pressure: 1027 hPa 1014.8 hPa -
Precipitation: 0 mm    
Historical Graphs
 
 
Tabular Data for March 26, 2017
Time Temperature Dew Point Pressure Wind Wind Speed Wind Gust Humidity Rainfall Rate (Hourly)
00:04 1.3 °C -0.1 °C 1027 hPa ENE 8 km/h 22.5 km/h 90% 0.25 mm
00:09 1.3 °C -0.2 °C 1027 hPa ENE 9.7 km/h 22.5 km/h 90% 0.25 mm
00:14 1.3 °C -0.2 °C 1027 hPa ENE 11.3 km/h 20.9 km/h 90% 0.25 mm
00:19 1.3 °C -0.2 °C 1026.6 hPa ENE 9.7 km/h 20.9 km/h 90% 0.25 mm
00:24 1.3 °C -0.2 °C 1026.6 hPa ENE 9.7 km/h 17.7 km/h 90% 0.25 mm
00:29 1.3 °C -0.2 °C 1026.3 hPa ENE 9.7 km/h 20.9 km/h 90% 0.25 mm
00:34 1.3 °C -0.2 °C 1026.3 hPa East 9.7 km/h 20.9 km/h 90% 0 mm
00:39 1.3 °C -0.2 °C 1026.3 hPa ENE 6.4 km/h 17.7 km/h 90% 0 mm
00:44 1.3 °C -0.2 °C 1026.3 hPa NE 9.7 km/h 20.9 km/h 90% 0 mm
00:49 1.3 °C -0.1 °C 1026.3 hPa NE 8 km/h 14.5 km/h 90% 0 mm
00:54 1.3 °C -0.1 °C 1026.3 hPa NE 6.4 km/h 22.5 km/h 90% 0 mm
00:59 1.3 °C -0.1 °C 1026.3 hPa East 12.9 km/h 24.1 km/h 90% 0 mm
01:05 1.4 °C -0.1 °C 1026 hPa NE 9.7 km/h 17.7 km/h 90% 0 mm
01:10 1.4 °C 0 °C 1026.3 hPa NNE 8 km/h 19.3 km/h 90% 0 mm
01:15 1.4 °C 0 °C 1026.3 hPa NE 12.9 km/h 20.9 km/h 90% 0 mm
01:20 1.6 °C 0.1 °C 1026.3 hPa ENE 11.3 km/h 25.7 km/h 90% 0 mm
01:25 1.6 °C 0.2 °C 1026.3 hPa ENE 9.7 km/h 25.7 km/h 90% 0 mm
01:30 1.7 °C 0.2 °C 1026 hPa ENE 9.7 km/h 20.9 km/h 90% 0 mm
01:35 1.7 °C 0.2 °C 1026.3 hPa NE 16.1 km/h 19.3 km/h 90% 0 mm
01:40 1.7 °C 0.3 °C 1026.3 hPa ENE 16.1 km/h 22.5 km/h 90% 0 mm
01:45 1.7 °C 0.3 °C 1026 hPa ENE 11.3 km/h 22.5 km/h 90% 0 mm
01:50 1.7 °C 0.3 °C 1026 hPa NE 8 km/h 19.3 km/h 90% 0 mm
01:55 1.8 °C 0.3 °C 1026 hPa ENE 9.7 km/h 19.3 km/h 90% 0.25 mm
02:00 1.8 °C 0.4 °C 1026 hPa NE 8 km/h 20.9 km/h 90% 0.51 mm
02:05 1.8 °C 0.4 °C 1026 hPa East 4.8 km/h 20.9 km/h 90% 0.51 mm
02:10 1.8 °C 0.4 °C 1026 hPa East 9.7 km/h 16.1 km/h 90% 0.51 mm
02:15 1.8 °C 0.4 °C 1025.6 hPa ENE 9.7 km/h 22.5 km/h 90% 0.51 mm
02:20 1.8 °C 0.5 °C 1025.6 hPa ENE 9.7 km/h 22.5 km/h 91% 0.51 mm
02:25 1.9 °C 0.6 °C 1025.6 hPa ENE 8 km/h 24.1 km/h 91% 0.51 mm
02:30 1.9 °C 0.6 °C 1025.3 hPa ENE 8 km/h 24.1 km/h 91% 0.51 mm
02:35 1.9 °C 0.6 °C 1024.9 hPa ENE 9.7 km/h 20.9 km/h 91% 0.76 mm
02:40 1.9 °C 0.6 °C 1024.9 hPa ENE 9.7 km/h 19.3 km/h 91% 0.76 mm
02:45 1.9 °C 0.6 °C 1024.9 hPa ENE 9.7 km/h 22.5 km/h 91% 0.76 mm
02:55 1.9 °C 0.6 °C 1024.9 hPa NE 14.5 km/h 24.1 km/h 91% 0.51 mm
03:00 1.9 °C 0.6 °C 1024.9 hPa ENE 4.8 km/h 20.9 km/h 91% 0.25 mm
03:05 2 °C 0.7 °C 1024.9 hPa ENE 4.8 km/h 12.9 km/h 91% 0.25 mm
03:10 2.1 °C 0.7 °C 1024.9 hPa NE 6.4 km/h 14.5 km/h 91% 0.25 mm
03:15 2.1 °C 0.7 °C 1024.6 hPa NE 14.5 km/h 16.1 km/h 91% 0.25 mm
03:20 2.1 °C 0.7 °C 1024.6 hPa ENE 9.7 km/h 17.7 km/h 91% 0.51 mm
03:25 2.1 °C 0.7 °C 1024.3 hPa ENE 9.7 km/h 19.3 km/h 91% 0.51 mm
03:30 2.1 °C 0.8 °C 1024.3 hPa NE 11.3 km/h 19.3 km/h 91% 0.51 mm
03:35 2.1 °C 0.8 °C 1024.3 hPa NE 11.3 km/h 17.7 km/h 91% 0.25 mm
03:40 2.1 °C 0.7 °C 1024.3 hPa NE 11.3 km/h 20.9 km/h 91% 0.25 mm
03:45 2.1 °C 0.8 °C 1024.3 hPa ENE 12.9 km/h 22.5 km/h 91% 0.25 mm
03:50 2.1 °C 0.8 °C 1024.3 hPa NE 9.7 km/h 22.5 km/h 91% 0.25 mm
03:55 2.2 °C 0.8 °C 1024.3 hPa NE 11.3 km/h 19.3 km/h 91% 0.25 mm
04:00 2.2 °C 0.8 °C 1024.3 hPa NE 9.7 km/h 16.1 km/h 91% 0.25 mm
04:05 2.2 °C 0.8 °C 1024.3 hPa ENE 19.3 km/h 19.3 km/h 91% 0.25 mm
04:10 2.2 °C 0.8 °C 1024.3 hPa NE 11.3 km/h 19.3 km/h 91% 0.25 mm
04:15 2.2 °C 0.9 °C 1023.9 hPa NNE 11.3 km/h 20.9 km/h 91% 0.25 mm
04:20 2.2 °C 0.9 °C 1023.9 hPa NE 6.4 km/h 14.5 km/h 91% 0 mm
04:25 2.2 °C 0.9 °C 1023.9 hPa NE 8 km/h 19.3 km/h 91% 0 mm
04:30 2.3 °C 0.9 °C 1023.9 hPa NE 9.7 km/h 19.3 km/h 91% 0 mm
04:35 2.3 °C 0.9 °C 1023.9 hPa NE 9.7 km/h 17.7 km/h 91% 0 mm
04:40 2.3 °C 0.8 °C 1023.9 hPa NE 9.7 km/h 17.7 km/h 90% 0 mm
04:44 2.3 °C 0.8 °C 1023.9 hPa NNE 6.4 km/h 16.1 km/h 90% 0 mm
04:50 2.4 °C 0.9 °C 1023.9 hPa NE 11.3 km/h 16.1 km/h 90% 0 mm
04:55 2.3 °C 0.8 °C 1023.6 hPa NE 11.3 km/h 17.7 km/h 90% 0 mm
05:00 2.4 °C 0.9 °C 1023.6 hPa NE 11.3 km/h 17.7 km/h 90% 0 mm
05:05 2.4 °C 0.9 °C 1023.6 hPa ENE 11.3 km/h 20.9 km/h 90% 0 mm
05:10 2.4 °C 0.9 °C 1023.6 hPa East 11.3 km/h 17.7 km/h 90% 0 mm
05:15 2.4 °C 0.9 °C 1023.6 hPa ENE 6.4 km/h 22.5 km/h 90% 0 mm
05:20 2.4 °C 0.9 °C 1023.6 hPa NE 14.5 km/h 16.1 km/h 90% 0 mm
05:24 2.4 °C 0.9 °C 1023.6 hPa NE 9.7 km/h 19.3 km/h 90% 0 mm
05:30 2.4 °C 0.9 °C 1023.2 hPa NE 11.3 km/h 19.3 km/h 90% 0 mm
05:35 2.4 °C 0.9 °C 1023.6 hPa NE 11.3 km/h 20.9 km/h 90% 0 mm
05:40 2.4 °C 0.9 °C 1023.2 hPa NE 11.3 km/h 24.1 km/h 90% 0 mm
05:45 2.4 °C 0.9 °C 1023.2 hPa NE 11.3 km/h 24.1 km/h 90% 0 mm
05:50 2.5 °C 1 °C 1023.2 hPa NE 9.7 km/h 20.9 km/h 90% 0 mm
05:54 2.5 °C 1 °C 1023.2 hPa NE 9.7 km/h 20.9 km/h 90% 0 mm
06:00 2.6 °C 1.1 °C 1023.2 hPa NE 9.7 km/h 17.7 km/h 90% 0 mm
06:05 2.6 °C 1.1 °C 1023.2 hPa NE 11.3 km/h 16.1 km/h 90% 0 mm
06:10 2.6 °C 1.1 °C 1023.2 hPa NNE 4.8 km/h 20.9 km/h 90% 0 mm
06:15 2.6 °C 1.1 °C 1022.9 hPa NE 3.2 km/h 16.1 km/h 90% 0 mm
06:20 2.7 °C 1.2 °C 1023.2 hPa ENE 4.8 km/h 12.9 km/h 90% 0 mm
06:25 2.7 °C 1.2 °C 1022.9 hPa NE 6.4 km/h 16.1 km/h 90% 0 mm
06:30 2.7 °C 1.2 °C 1022.9 hPa ENE 9.7 km/h 20.9 km/h 90% 0 mm
06:35 2.8 °C 1.3 °C 1022.9 hPa ENE 8 km/h 20.9 km/h 90% 0 mm
06:40 2.8 °C 1.3 °C 1022.9 hPa NE 8 km/h 16.1 km/h 90% 0 mm
06:45 2.8 °C 1.3 °C 1022.9 hPa NE 8 km/h 17.7 km/h 90% 0 mm
06:49 2.9 °C 1.4 °C 1022.9 hPa ENE 8 km/h 16.1 km/h 90% 0 mm
06:54 2.8 °C 1.3 °C 1022.9 hPa ENE 6.4 km/h 14.5 km/h 90% 0 mm
06:59 2.9 °C 1.4 °C 1022.9 hPa NE 8 km/h 17.7 km/h 90% 0 mm
07:04 2.9 °C 1.4 °C 1022.6 hPa NE 8 km/h 20.9 km/h 90% 0 mm
07:10 2.9 °C 1.4 °C 1022.6 hPa NE 9.7 km/h 20.9 km/h 90% 0 mm
07:15 3 °C 1.5 °C 1022.6 hPa NE 9.7 km/h 17.7 km/h 90% 0 mm
07:20 3 °C 1.5 °C 1022.6 hPa NE 9.7 km/h 19.3 km/h 90% 0 mm
07:25 3.1 °C 1.6 °C 1022.6 hPa ENE 14.5 km/h 19.3 km/h 90% 0 mm
07:30 3.1 °C 1.6 °C 1022.6 hPa NE 6.4 km/h 19.3 km/h 90% 0 mm
07:34 3.1 °C 1.6 °C 1022.6 hPa NE 9.7 km/h 19.3 km/h 90% 0 mm
07:40 3.2 °C 1.7 °C 1022.6 hPa NE 9.7 km/h 17.7 km/h 90% 0 mm
07:45 3.3 °C 1.8 °C 1022.6 hPa NE 9.7 km/h 17.7 km/h 90% 0 mm
07:49 3.3 °C 1.8 °C 1022.2 hPa NE 14.5 km/h 19.3 km/h 90% 0 mm
07:55 3.3 °C 1.8 °C 1022.2 hPa NE 11.3 km/h 17.7 km/h 90% 0 mm
08:00 3.3 °C 1.8 °C 1022.2 hPa ENE 11.3 km/h 19.3 km/h 90% 0 mm
08:04 3.4 °C 1.9 °C 1022.2 hPa ENE 9.7 km/h 19.3 km/h 90% 0 mm
08:10 3.6 °C 2.1 °C 1021.9 hPa NE 9.7 km/h 16.1 km/h 90% 0 mm
08:15 3.7 °C 2.2 °C 1021.9 hPa NE 9.7 km/h 16.1 km/h 90% 0 mm
08:20 3.8 °C 2.3 °C 1021.9 hPa NE 8 km/h 17.7 km/h 90% 0 mm
08:25 3.9 °C 2.2 °C 1021.9 hPa ENE 8 km/h 12.9 km/h 89% 0 mm
08:30 4 °C 2.3 °C 1021.9 hPa ENE 12.9 km/h 17.7 km/h 89% 0 mm
08:34 4.1 °C 2.4 °C 1021.9 hPa NE 9.7 km/h 17.7 km/h 89% 0 mm
08:40 4.2 °C 2.6 °C 1021.9 hPa NE 9.7 km/h 17.7 km/h 89% 0 mm
08:45 4.4 °C 2.7 °C 1021.9 hPa NE 9.7 km/h 16.1 km/h 89% 0 mm
08:50 4.6 °C 2.9 °C 1021.6 hPa NE 9.7 km/h 17.7 km/h 89% 0 mm
08:54 4.7 °C 2.8 °C 1021.6 hPa East 9.7 km/h 17.7 km/h 88% 0 mm
08:59 4.8 °C 3 °C 1021.6 hPa NE 9.7 km/h 17.7 km/h 88% 0 mm
09:04 4.9 °C 3.1 °C 1021.6 hPa ENE 3.2 km/h 14.5 km/h 88% 0 mm
09:09 5 °C 3.2 °C 1021.6 hPa NE 8 km/h 14.5 km/h 88% 0 mm
09:14 5.2 °C 3.3 °C 1021.6 hPa NE 12.9 km/h 17.7 km/h 88% 0 mm
09:20 5.4 °C 3.6 °C 1021.2 hPa East 11.3 km/h 14.5 km/h 88% 0 mm
09:25 5.6 °C 3.6 °C 1021.2 hPa NE 14.5 km/h 16.1 km/h 87% 0 mm
09:30 5.8 °C 3.8 °C 1021.2 hPa NE 4.8 km/h 16.1 km/h 87% 0 mm
09:35 6 °C 4 °C 1021.2 hPa NE 6.4 km/h 19.3 km/h 87% 0 mm
09:40 6.2 °C 4 °C 1021.2 hPa NE 8 km/h 19.3 km/h 86% 0 mm
09:44 6.3 °C 4.2 °C 1021.2 hPa NE 8 km/h 16.1 km/h 86% 0 mm
09:50 6.6 °C 4.4 °C 1021.2 hPa NE 8 km/h 16.1 km/h 86% 0 mm
09:55 6.7 °C 4.6 °C 1021.2 hPa NE 6.4 km/h 12.9 km/h 86% 0 mm
10:00 6.9 °C 4.8 °C 1021.2 hPa NE 6.4 km/h 12.9 km/h 86% 0 mm
10:05 7.1 °C 4.8 °C 1020.9 hPa NE 8 km/h 12.9 km/h 85% 0 mm
10:10 7.4 °C 5.1 °C 1020.9 hPa NE 6.4 km/h 11.3 km/h 85% 0 mm
10:14 7.6 °C 5 °C 1021.2 hPa NNE 4.8 km/h 12.9 km/h 84% 0 mm
10:20 7.7 °C 5 °C 1020.9 hPa NE 6.4 km/h 12.9 km/h 83% 0 mm
10:25 8.1 °C 5.6 °C 1021.2 hPa ENE 8 km/h 12.9 km/h 84% 0 mm
10:29 8.4 °C 5.7 °C 1021.2 hPa NE 4.8 km/h 11.3 km/h 83% 0 mm
10:35 8.6 °C 5.9 °C 1021.2 hPa NE 4.8 km/h 11.3 km/h 83% 0 mm
10:39 8.6 °C 5.7 °C 1021.2 hPa NE 4.8 km/h 11.3 km/h 82% 0 mm
10:44 8.7 °C 5.8 °C 1021.2 hPa NE 4.8 km/h 12.9 km/h 82% 0 mm
10:50 8.8 °C 5.9 °C 1020.9 hPa NE 4.8 km/h 14.5 km/h 82% 0 mm
10:55 8.8 °C 5.9 °C 1020.9 hPa NE 6.4 km/h 14.5 km/h 82% 0 mm
10:59 9 °C 6.1 °C 1020.9 hPa NNE 4.8 km/h 12.9 km/h 82% 0 mm
11:04 9 °C 5.9 °C 1020.9 hPa NE 3.2 km/h 11.3 km/h 81% 0 mm
11:09 9.1 °C 6.2 °C 1020.9 hPa NE 6.4 km/h 12.9 km/h 82% 0 mm
11:14 9.3 °C 6.4 °C 1020.9 hPa NNE 4.8 km/h 12.9 km/h 82% 0 mm
11:20 9.3 °C 6.2 °C 1020.5 hPa NNE 6.4 km/h 8 km/h 81% 0 mm
11:24 9.4 °C 6.3 °C 1020.5 hPa NNE 6.4 km/h 9.7 km/h 81% 0 mm
11:29 9.6 °C 6.5 °C 1020.5 hPa NE 4.8 km/h 8 km/h 81% 0 mm
11:35 10.1 °C 6.9 °C 1020.5 hPa NNE 1.6 km/h 6.4 km/h 81% 0 mm
11:39 10.3 °C 7 °C 1020.5 hPa NNE 4.8 km/h 8 km/h 80% 0 mm
11:44 10.4 °C 7.1 °C 1020.5 hPa NNE 4.8 km/h 8 km/h 80% 0 mm
11:49 10.5 °C 7 °C 1020.5 hPa NNE 4.8 km/h 8 km/h 79% 0 mm
11:55 10.8 °C 7.3 °C 1020.5 hPa NNE 4.8 km/h 8 km/h 79% 0 mm
12:00 10.9 °C 7.3 °C 1020.5 hPa NE 4.8 km/h 9.7 km/h 78% 0 mm
12:05 11.3 °C 7.8 °C 1020.2 hPa NE 4.8 km/h 9.7 km/h 79% 0 mm
12:09 11.7 °C 7.8 °C 1020.2 hPa NNE 4.8 km/h 11.3 km/h 77% 0 mm
12:14 12.1 °C 8.3 °C 1020.2 hPa NNE 1.6 km/h 11.3 km/h 78% 0 mm
12:19 12.3 °C 8.2 °C 1020.2 hPa Calm   8 km/h 76% 0 mm
12:24 12.7 °C 8.3 °C 1020.2 hPa NNW 3.2 km/h 8 km/h 75% 0 mm
12:29 13.6 °C 9.1 °C 1019.9 hPa SSE 6.4 km/h 12.9 km/h 74% 0 mm
12:34 14.3 °C 9.3 °C 1019.9 hPa ESE 6.4 km/h 14.5 km/h 72% 0 mm
12:39 14.3 °C 9.3 °C 1019.9 hPa NE 8 km/h 14.5 km/h 72% 0 mm
12:44 14.8 °C 9.4 °C 1019.9 hPa ESE 6.4 km/h 14.5 km/h 70% 0 mm
12:49 15 °C 9.6 °C 1019.5 hPa ESE 4.8 km/h 17.7 km/h 70% 0 mm
12:54 15.1 °C 9.4 °C 1019.5 hPa SE 8 km/h 17.7 km/h 69% 0 mm
12:59 15 °C 9.3 °C 1019.5 hPa SSE 9.7 km/h 17.7 km/h 69% 0 mm
13:05 15.3 °C 9.4 °C 1019.5 hPa SSE 9.7 km/h 16.1 km/h 68% 0 mm
13:10 15.6 °C 9.7 °C 1019.5 hPa South 8 km/h 14.5 km/h 68% 0 mm
13:14 15.8 °C 9.7 °C 1019.5 hPa SSW 4.8 km/h 17.7 km/h 67% 0 mm
13:19 15.9 °C 9.6 °C 1019.2 hPa SSW 9.7 km/h 16.1 km/h 66% 0 mm
13:24 16.1 °C 9.9 °C 1019.2 hPa SSW 4.8 km/h 16.1 km/h 67% 0 mm
13:29 16.1 °C 9.5 °C 1019.2 hPa South 11.3 km/h 19.3 km/h 65% 0 mm
13:34 16 °C 9.7 °C 1019.2 hPa SE 8 km/h 17.7 km/h 66% 0 mm
13:39 15.9 °C 9.4 °C 1018.8 hPa SW 11.3 km/h 17.7 km/h 65% 0 mm
13:44 15.8 °C 9.2 °C 1018.8 hPa South 9.7 km/h 20.9 km/h 65% 0 mm
13:49 15.8 °C 9.3 °C 1018.8 hPa South 9.7 km/h 20.9 km/h 65% 0 mm
13:54 15.6 °C 9 °C 1018.5 hPa South 9.7 km/h 19.3 km/h 65% 0 mm
14:00 15.5 °C 9.2 °C 1018.5 hPa South 9.7 km/h 19.3 km/h 66% 0 mm
14:04 15.6 °C 9 °C 1018.5 hPa South 9.7 km/h 17.7 km/h 65% 0 mm
14:10 15.4 °C 8.9 °C 1018.5 hPa SE 9.7 km/h 16.1 km/h 65% 0 mm
14:15 15.7 °C 9.1 °C 1018.5 hPa SSE 8 km/h 16.1 km/h 65% 0 mm
14:19 15.6 °C 8.8 °C 1018.2 hPa SSE 9.7 km/h 19.3 km/h 64% 0 mm
14:24 15.9 °C 9.1 °C 1018.2 hPa SSE 9.7 km/h 19.3 km/h 64% 0 mm
14:29 15.8 °C 9 °C 1017.8 hPa South 6.4 km/h 14.5 km/h 64% 0 mm
14:34 15.7 °C 8.9 °C 1017.8 hPa SSE 11.3 km/h 16.1 km/h 64% 0 mm
14:39 15.7 °C 8.9 °C 1017.8 hPa SE 4.8 km/h 14.5 km/h 64% 0 mm
14:44 15.7 °C 8.9 °C 1017.5 hPa SSE 4.8 km/h 11.3 km/h 64% 0 mm
14:54 15.4 °C 8.9 °C 1017.5 hPa SSE 8 km/h 22.5 km/h 65% 0 mm
14:59 15.4 °C 8.9 °C 1017.5 hPa SE 8 km/h 22.5 km/h 65% 0 mm
15:04 15.6 °C 8.8 °C 1017.5 hPa SSE 8 km/h 17.7 km/h 64% 0 mm
15:09 15.7 °C 9.1 °C 1017.2 hPa SSE 9.7 km/h 19.3 km/h 65% 0 mm
15:15 15.7 °C 8.9 °C 1017.2 hPa SSE 9.7 km/h 19.3 km/h 64% 0 mm
15:20 15.8 °C 9.1 °C 1017.2 hPa SSE 9.7 km/h 19.3 km/h 64% 0 mm
15:24 15.9 °C 8.9 °C 1016.8 hPa SSE 8 km/h 19.3 km/h 63% 0 mm
15:29 16.3 °C 9.4 °C 1017.2 hPa SSE 9.7 km/h 19.3 km/h 64% 0 mm
15:39 16.1 °C 9.2 °C 1016.8 hPa SSE 8 km/h 12.9 km/h 64% 0 mm
15:44 16.2 °C 9.2 °C 1016.8 hPa SSE 14.5 km/h 17.7 km/h 63% 0 mm
15:49 16.3 °C 9 °C 1016.8 hPa South 8 km/h 17.7 km/h 62% 0 mm
15:54 16.2 °C 9.1 °C 1016.8 hPa SSE 14.5 km/h 20.9 km/h 63% 0 mm
15:59 16.3 °C 9.2 °C 1016.8 hPa South 11.3 km/h 20.9 km/h 63% 0 mm
16:04 16.4 °C 8.9 °C 1016.5 hPa SSE 11.3 km/h 20.9 km/h 61% 0 mm
16:09 16.6 °C 9 °C 1016.5 hPa SSE 11.3 km/h 20.9 km/h 61% 0 mm
16:14 16.6 °C 9.2 °C 1016.5 hPa South 11.3 km/h 20.9 km/h 62% 0 mm
16:19 16.6 °C 9.2 °C 1016.5 hPa South 12.9 km/h 16.1 km/h 62% 0 mm
16:24 16.4 °C 8.9 °C 1016.1 hPa ESE 8 km/h 22.5 km/h 61% 0 mm
16:29 16.2 °C 8.7 °C 1016.1 hPa South 11.3 km/h 22.5 km/h 61% 0 mm
16:34 16.1 °C 8.8 °C 1016.1 hPa South 9.7 km/h 17.7 km/h 62% 0 mm
16:39 16.1 °C 8.8 °C 1016.1 hPa SSW 4.8 km/h 17.7 km/h 62% 0 mm
16:44 16.1 °C 8.8 °C 1016.1 hPa South 4.8 km/h 20.9 km/h 62% 0 mm
16:49 16 °C 8.7 °C 1016.1 hPa ESE 12.9 km/h 16.1 km/h 62% 0 mm
16:54 15.9 °C 8.6 °C 1016.1 hPa South 12.9 km/h 16.1 km/h 62% 0 mm
16:59 15.7 °C 8.4 °C 1016.1 hPa SE 9.7 km/h 19.3 km/h 62% 0 mm
17:09 15.3 °C 8.3 °C 1016.1 hPa SSE 12.9 km/h 24.1 km/h 63% 0 mm
17:14 15.3 °C 8.3 °C 1016.1 hPa South 6.4 km/h 14.5 km/h 63% 0 mm
17:19 15.1 °C 8.1 °C 1016.1 hPa South 6.4 km/h 16.1 km/h 63% 0 mm
17:24 14.9 °C 7.9 °C 1016.1 hPa SSE 8 km/h 16.1 km/h 63% 0 mm
17:29 14.8 °C 8.1 °C 1016.5 hPa South 8 km/h 12.9 km/h 64% 0 mm
17:34 14.6 °C 7.9 °C 1016.5 hPa South 6.4 km/h 16.1 km/h 64% 0 mm
17:39 14.4 °C 7.9 °C 1016.1 hPa SSE 8 km/h 16.1 km/h 65% 0 mm
17:44 14.3 °C 7.8 °C 1016.5 hPa SSE 8 km/h 19.3 km/h 65% 0 mm
17:49 14.1 °C 7.6 °C 1016.5 hPa SSE 9.7 km/h 19.3 km/h 65% 0 mm
17:59 13.8 °C 7.6 °C 1016.1 hPa SSE 8 km/h 19.3 km/h 66% 0 mm
18:04 13.7 °C 7.5 °C 1016.5 hPa South 6.4 km/h 16.1 km/h 66% 0 mm
18:09 13.6 °C 7.4 °C 1016.1 hPa SE 9.7 km/h 20.9 km/h 66% 0 mm
18:14 13.6 °C 7.4 °C 1016.1 hPa SW 8 km/h 20.9 km/h 66% 0 mm
18:19 13.5 °C 7.3 °C 1016.1 hPa SSE 6.4 km/h 17.7 km/h 66% 0 mm
18:24 13.4 °C 7.4 °C 1016.1 hPa SE 11.3 km/h 17.7 km/h 67% 0 mm
18:29 13.3 °C 7.3 °C 1016.1 hPa SSE 8 km/h 14.5 km/h 67% 0 mm
18:34 13.3 °C 7.3 °C 1016.1 hPa SE 6.4 km/h 16.1 km/h 67% 0 mm
18:39 13.2 °C 7.2 °C 1016.1 hPa SSE 8 km/h 19.3 km/h 67% 0 mm
18:44 13.1 °C 7.1 °C 1016.1 hPa SSE 9.7 km/h 19.3 km/h 67% 0 mm
18:49 12.9 °C 7.1 °C 1016.5 hPa SSE 8 km/h 17.7 km/h 68% 0 mm
18:54 12.8 °C 7.1 °C 1016.5 hPa South 8 km/h 17.7 km/h 68% 0 mm
18:59 12.7 °C 6.9 °C 1016.5 hPa South 8 km/h 17.7 km/h 68% 0 mm
19:04 12.5 °C 6.9 °C 1016.1 hPa South 8 km/h 17.7 km/h 69% 0 mm
19:10 12.3 °C 6.8 °C 1016.1 hPa South 8 km/h 16.1 km/h 69% 0 mm
19:14 12.2 °C 6.9 °C 1016.1 hPa South 9.7 km/h 16.1 km/h 70% 0 mm
19:19 12.1 °C 6.7 °C 1016.1 hPa SE 3.2 km/h 14.5 km/h 70% 0 mm
19:29 11.9 °C 6.8 °C 1016.1 hPa South 8 km/h 16.1 km/h 71% 0 mm
19:34 11.8 °C 6.7 °C 1016.1 hPa SSE 4.8 km/h 11.3 km/h 71% 0 mm
19:39 11.7 °C 6.6 °C 1016.1 hPa SSW 8 km/h 12.9 km/h 71% 0 mm
19:44 11.6 °C 6.5 °C 1015.8 hPa SSE 6.4 km/h 14.5 km/h 71% 0 mm
19:49 11.6 °C 6.7 °C 1015.8 hPa SSE 6.4 km/h 14.5 km/h 72% 0 mm
19:54 11.6 °C 6.7 °C 1015.8 hPa SSE 4.8 km/h 14.5 km/h 72% 0 mm
19:59 11.4 °C 6.6 °C 1015.5 hPa SSE 6.4 km/h 14.5 km/h 72% 0 mm
20:04 11.4 °C 6.5 °C 1015.5 hPa SE 8 km/h 11.3 km/h 72% 0 mm
20:09 11.4 °C 6.5 °C 1015.8 hPa South 6.4 km/h 9.7 km/h 72% 0 mm
20:14 11.4 °C 6.5 °C 1016.1 hPa South 8 km/h 14.5 km/h 72% 0 mm
20:19 11.3 °C 6.4 °C 1016.1 hPa South 6.4 km/h 14.5 km/h 72% 0 mm
20:24 11.3 °C 6.4 °C 1016.1 hPa South 6.4 km/h 14.5 km/h 72% 0 mm
20:29 11.3 °C 6.6 °C 1015.8 hPa South 8 km/h 14.5 km/h 73% 0 mm
20:34 11.2 °C 6.7 °C 1015.8 hPa South 8 km/h 14.5 km/h 74% 0 mm
20:39 10.9 °C 6.9 °C 1015.8 hPa SE 4.8 km/h 11.3 km/h 76% 0 mm
20:44 10.8 °C 6.9 °C 1015.8 hPa South 3.2 km/h 9.7 km/h 77% 0 mm
20:49 10.6 °C 7.1 °C 1015.8 hPa South 6.4 km/h 11.3 km/h 79% 0 mm
20:54 10.5 °C 7 °C 1016.1 hPa South 6.4 km/h 11.3 km/h 79% 0 mm
20:59 10.4 °C 7.2 °C 1015.8 hPa South 9.7 km/h 14.5 km/h 80% 0 mm
21:04 10.4 °C 7.1 °C 1016.1 hPa SSE 6.4 km/h 14.5 km/h 80% 0 mm
21:09 10.3 °C 7.1 °C 1015.8 hPa SSE 3.2 km/h 12.9 km/h 80% 0 mm
21:14 10.3 °C 7.1 °C 1016.1 hPa SSE 8 km/h 11.3 km/h 80% 0 mm
21:19 10.3 °C 7.1 °C 1016.1 hPa South 4.8 km/h 11.3 km/h 80% 0 mm
21:29 10.3 °C 7 °C 1015.8 hPa South 4.8 km/h 8 km/h 80% 0 mm
21:34 10.3 °C 7 °C 1015.8 hPa South 8 km/h 9.7 km/h 80% 0 mm
21:39 10.3 °C 7 °C 1015.8 hPa South 8 km/h 11.3 km/h 80% 0 mm
21:44 10.3 °C 6.8 °C 1015.8 hPa South 4.8 km/h 9.7 km/h 79% 0 mm
21:49 10.3 °C 6.8 °C 1015.8 hPa South 6.4 km/h 14.5 km/h 79% 0 mm
21:54 10.3 °C 6.8 °C 1015.8 hPa South 9.7 km/h 9.7 km/h 79% 0 mm
21:59 10.3 °C 6.8 °C 1015.8 hPa SSE 9.7 km/h 11.3 km/h 79% 0 mm
22:04 10.3 °C 6.8 °C 1015.8 hPa SSE 6.4 km/h 16.1 km/h 79% 0 mm
22:09 10.2 °C 6.7 °C 1015.8 hPa SSW 4.8 km/h 14.5 km/h 79% 0 mm
22:14 10.2 °C 6.7 °C 1015.8 hPa SSW 4.8 km/h 11.3 km/h 79% 0 mm
22:19 10.2 °C 6.7 °C 1015.8 hPa South 6.4 km/h 11.3 km/h 79% 0 mm
22:24 10.1 °C 6.6 °C 1015.8 hPa South 6.4 km/h 12.9 km/h 79% 0 mm
22:29 10 °C 6.7 °C 1015.8 hPa South 6.4 km/h 14.5 km/h 80% 0 mm
22:34 9.9 °C 6.6 °C 1015.5 hPa South 6.4 km/h 14.5 km/h 80% 0 mm
22:39 9.9 °C 6.6 °C 1015.8 hPa SSW 6.4 km/h 14.5 km/h 80% 0.25 mm
22:44 9.8 °C 6.7 °C 1015.5 hPa South 4.8 km/h 11.3 km/h 81% 0.25 mm
22:49 9.7 °C 6.7 °C 1015.8 hPa South 4.8 km/h 11.3 km/h 82% 0.51 mm
22:54 9.6 °C 6.8 °C 1015.5 hPa South 4.8 km/h 11.3 km/h 83% 0.51 mm
22:59 9.4 °C 6.9 °C 1015.5 hPa South 4.8 km/h 9.7 km/h 84% 0.76 mm
23:04 9.4 °C 6.8 °C 1015.5 hPa South 3.2 km/h 11.3 km/h 84% 0.76 mm
23:09 9.3 °C 6.8 °C 1015.1 hPa SSW 3.2 km/h 12.9 km/h 84% 0.76 mm
23:14 9.3 °C 6.9 °C 1015.1 hPa SSW 6.4 km/h 8 km/h 85% 1.02 mm
23:19 9.3 °C 6.9 °C 1015.1 hPa SSW 4.8 km/h 11.3 km/h 85% 1.02 mm
23:24 9.3 °C 6.9 °C 1015.5 hPa South 4.8 km/h 11.3 km/h 85% 1.02 mm
23:29 9.2 °C 7 °C 1015.1 hPa South 3.2 km/h 8 km/h 86% 1.27 mm
23:34 9.1 °C 6.9 °C 1015.1 hPa South 1.6 km/h 8 km/h 86% 1.27 mm
23:39 9.1 °C 7 °C 1015.1 hPa South 3.2 km/h 8 km/h 87% 1.02 mm
23:44 9.1 °C 7 °C 1015.1 hPa SSE 1.6 km/h 4.8 km/h 87% 1.02 mm
23:49 9 °C 6.9 °C 1015.1 hPa SSE 1.6 km/h 6.4 km/h 87% 0.76 mm
23:54 9.1 °C 7 °C 1014.8 hPa South 3.2 km/h 9.7 km/h 87% 0.76 mm
23:59 9.1 °C 7 °C 1014.8 hPa South 3.2 km/h 8 km/h 87% 0.51 mm
Buffalo, New York, USA
Compliments of Weather Underground - 2.5 mb